Weather reports worldwide

Advertisment
Storlien-Visjovalen A, Sweden (2207): temperature & dewpoint: 14.10.2019 04:00:00 - 20.10.2019 04:00:00 (CEST)Storlien-Visjovalen A, Sweden (2207): wind speed & gusts: 14.10.2019 04:00:00 - 20.10.2019 04:00:00 (CEST)Storlien-Visjovalen A, Sweden (2207): wind direction: 14.10.2019 04:00:00 - 20.10.2019 04:00:00 (CEST)Storlien-Visjovalen A, Sweden (2207): reduced air pressure: 14.10.2019 04:00:00 - 20.10.2019 04:00:00 (CEST)Storlien-Visjovalen A, Sweden (2207): visibility: 14.10.2019 04:00:00 - 20.10.2019 04:00:00 (CEST)Storlien-Visjovalen A, Sweden (2207): precipitation: 14.10.2019 04:00:00 - 20.10.2019 04:00:00 (CEST)
Date & Time tt [°C] td [°C] ff [km/h] ff [kn] fx [km/h] fx [kn] dd ppp [hPa] vv [km] rr [mm]
20.10.2019 04:00:00 -1,6 -3,0 8 5 34 19 E 1015,3 50 0,0
20.10.2019 03:00:00 -1,4 -3,0 9 5 29 15 E 1014,8 50 0,0
20.10.2019 02:00:00 -1,3 -2,9 12 6 31 17 E 1014,4 50 0,0
20.10.2019 01:00:00 -1,0 -2,3 8 5 28 15 E 1014,2 50 0,0
20.10.2019 00:00:00 -0,7 -1,7 7 4 22 12 ENE 1013,9 12 0,0
19.10.2019 23:00:00 -0,3 -1,3 8 5 31 17 E 1013,5 10 -
19.10.2019 22:00:00 0,0 -0,8 9 5 21 12 E 1012,5 50 0,0
19.10.2019 21:00:00 0,3 -0,4 6 4 19 10 E 1011,6 50 0,0
19.10.2019 20:00:00 0,3 -0,6 9 5 23 12 E 1011,0 28 0,0
19.10.2019 19:00:00 0,8 0,1 7 4 25 13 E 1010,1 50 0,0
19.10.2019 18:00:00 1,6 0,9 10 5 21 11 E 1009,0 27 0,0
19.10.2019 17:00:00 2,6 2,0 6 4 19 10 E 1007,7 50 0,0
19.10.2019 16:00:00 3,3 2,9 5 3 14 8 E 1006,7 28 0,1
19.10.2019 15:00:00 3,3 2,9 6 3 15 8 E 1006,1 3,6 0,3
19.10.2019 14:00:00 3,5 2,9 5 3 12 6 E 1005,4 9 0,1
19.10.2019 13:00:00 3,6 3,2 3 2 12 7 E 1005,1 8 0,1
19.10.2019 12:00:00 3,5 3,1 5 3 14 7 E 1004,6 7 0,2
19.10.2019 11:00:00 3,0 2,6 3 2 9 5 SE 1004,4 6 0,0
19.10.2019 10:00:00 2,7 2,3 0 0 10 5 N 1004,3 20 0,0
19.10.2019 09:00:00 2,3 2,2 2 1 9 5 NNE 1004,3 6 0,0
19.10.2019 08:00:00 1,7 1,4 0 0 4 2 N 1004,3 4,6 0,0
19.10.2019 07:00:00 2,0 1,7 3 2 7 4 S 1004,4 4,3 0,0
19.10.2019 06:00:00 1,2 0,9 0 0 4 2 N 1004,6 9 0,0
19.10.2019 05:00:00 1,1 0,8 0 0 4 2 N 1005,0 9 0,0
19.10.2019 04:00:00 0,8 0,4 0 0 6 4 N 1005,0 4,4 0,0
19.10.2019 03:00:00 1,2 0,8 3 2 5 3 SE 1005,1 50 0,0
19.10.2019 02:00:00 0,9 0,5 0 0 5 3 N 1005,4 16 0,0
19.10.2019 01:00:00 1,8 1,2 5 3 10 5 SE 1005,9 50 0,0
19.10.2019 00:00:00 2,4 1,5 4 2 8 4 ESE 1006,2 50 0,0
18.10.2019 23:00:00 3,1 1,9 4 2 13 7 ESE 1006,1 50 0,0
18.10.2019 22:00:00 3,4 2,1 9 5 18 10 SW 1005,9 50 0,0
18.10.2019 21:00:00 3,0 2,0 3 2 16 8 N 1006,1 50 0,0
18.10.2019 20:00:00 3,8 2,5 9 5 16 9 S 1006,1 50 0,0
18.10.2019 19:00:00 3,9 2,9 7 4 17 9 SSW 1006,1 9 0,0
18.10.2019 18:00:00 3,9 2,9 4 2 14 8 SSW 1006,1 50 0,0
18.10.2019 17:00:00 4,2 3,0 6 3 14 8 S 1005,9 41 0,1
18.10.2019 16:00:00 4,3 3,3 6 4 16 9 SSW 1006,1 11 0,5
18.10.2019 15:00:00 4,3 3,3 6 3 18 10 S 1006,1 8 0,3
18.10.2019 14:00:00 4,9 2,8 8 4 21 11 SSW 1005,8 50 0,0
18.10.2019 13:00:00 4,6 2,6 9 5 27 14 SSW 1005,8 30 0,0
18.10.2019 12:00:00 4,5 2,4 11 6 29 16 SW 1005,7 16 0,0
18.10.2019 11:00:00 4,7 1,5 15 8 34 18 SW 1005,5 50 0,0
18.10.2019 10:00:00 4,5 1,4 14 8 36 19 SW 1005,2 50 0,0
18.10.2019 09:00:00 4,1 1,5 16 9 32 17 SSW 1005,1 50 0,0
18.10.2019 08:00:00 4,5 1,4 17 9 29 16 SSW 1004,7 50 0,0
18.10.2019 07:00:00 4,6 1,4 5 3 29 15 SE 1004,9 35 0,0
18.10.2019 06:00:00 5,4 1,7 16 8 44 24 S 1004,3 50 0,0
18.10.2019 05:00:00 5,1 1,4 17 9 39 21 SW 1004,4 50 0,0
18.10.2019 04:00:00 4,9 1,2 11 6 34 18 SSW 1004,9 50 0,0
18.10.2019 03:00:00 4,4 0,7 17 9 32 18 SW 1004,9 50 0,0
18.10.2019 02:00:00 3,8 0,5 16 9 40 21 SSW 1005,6 50 0,0
18.10.2019 01:00:00 3,4 0,1 12 7 30 16 SSW 1006,2 42 0,0
18.10.2019 00:00:00 1,9 -0,4 5 3 20 11 SSE 1006,8 11 0,0
17.10.2019 23:00:00 0,6 -1,8 4 2 20 11 SSW 1007,1 32 0,0
17.10.2019 22:00:00 2,7 -0,6 14 8 23 12 SE 1007,1 50 0,0
17.10.2019 21:00:00 1,5 -1,6 0 0 37 20 N 1007,7 37 0,0
17.10.2019 20:00:00 2,5 -0,8 24 13 42 23 SE 1007,5 50 0,0
17.10.2019 19:00:00 2,1 -1,0 11 6 32 17 SSE 1008,4 50 0,0
17.10.2019 18:00:00 3,0 -0,8 13 7 24 13 SSE 1008,2 50 0,0
17.10.2019 17:00:00 3,3 -0,5 10 6 22 12 ESE 1008,5 50 0,0
17.10.2019 16:00:00 4,0 -0,4 12 6 23 13 ESE 1008,4 50 0,0
17.10.2019 15:00:00 4,6 -0,4 9 5 20 11 SE 1008,5 50 0,0
17.10.2019 14:00:00 4,8 -0,4 10 6 27 14 SSE 1008,6 50 0,0
17.10.2019 13:00:00 4,3 -0,7 16 8 28 15 SE 1009,0 50 0,0
17.10.2019 12:00:00 4,2 -0,8 16 8 26 14 SE 1009,4 50 0,0
17.10.2019 11:00:00 3,5 -0,9 12 6 24 13 ESE 1009,7 50 0,0
17.10.2019 10:00:00 2,5 -0,9 12 6 27 15 ESE 1010,2 50 0,0
17.10.2019 09:00:00 2,3 -1,1 15 8 31 17 SE 1010,3 50 0,0
17.10.2019 08:00:00 2,0 -1,3 18 10 35 19 SE 1009,9 50 0,0
17.10.2019 07:00:00 1,9 -1,2 16 9 35 19 ESE 1010,1 50 0,0
17.10.2019 06:00:00 1,9 -1,2 20 11 45 25 SE 1010,2 50 0,0
17.10.2019 05:00:00 2,2 -1,2 23 12 41 22 SE 1010,2 50 0,0
17.10.2019 04:00:00 2,3 -1,3 22 12 39 21 SE 1010,1 50 0,0
17.10.2019 03:00:00 2,5 -0,9 20 11 41 22 ESE 1010,4 50 0,0
17.10.2019 02:00:00 2,6 -0,5 21 11 34 19 SE 1010,9 50 0,0
17.10.2019 01:00:00 2,0 0,1 13 7 25 13 ESE 1011,4 50 0,0
17.10.2019 00:00:00 1,3 0,6 3 2 29 16 SSE 1011,6 39 0,1
16.10.2019 23:00:00 0,9 0,2 4 2 15 8 ESE 1011,9 24 0,9
16.10.2019 22:00:00 1,3 0,6 4 2 15 8 E 1012,0 7 0,3
16.10.2019 21:00:00 1,7 0,7 8 4 18 10 ESE 1011,6 26 0,3
16.10.2019 20:00:00 2,1 0,8 5 3 28 15 E 1011,6 30 0,2
16.10.2019 19:00:00 3,1 0,7 11 6 34 18 ESE 1011,2 30 0,0
16.10.2019 18:00:00 3,9 -0,3 13 7 35 19 ESE 1010,9 50 0,0
16.10.2019 17:00:00 3,8 -0,2 27 14 45 25 ESE 1010,8 50 0,0
16.10.2019 16:00:00 4,1 -0,3 18 10 49 26 SE 1010,9 50 0,0
16.10.2019 15:00:00 4,6 -0,2 16 9 49 27 SE 1010,8 50 0,0
16.10.2019 14:00:00 4,6 -0,2 28 15 54 29 ESE 1010,6 50 0,0
16.10.2019 13:00:00 4,6 -0,4 29 16 53 29 ESE 1010,6 0,1 0,0
16.10.2019 12:00:00 4,0 -0,2 14 7 37 20 E 1011,4 0,1 0,0
16.10.2019 11:00:00 2,8 0,7 3 2 11 6 E 1012,2 0,1 0,0
16.10.2019 10:00:00 1,5 0,8 2 1 8 4 SSE 1012,6 0,1 0,0
16.10.2019 09:00:00 0,6 0,3 4 2 7 4 W 1013,0 0,1 0,0
16.10.2019 08:00:00 0,3 0,0 3 2 14 8 E 1012,8 0,1 0,0
16.10.2019 07:00:00 0,3 0,1 7 4 14 8 ESE 1013,2 50 0,0
16.10.2019 06:00:00 0,0 -0,1 5 3 15 8 SE 1013,4 - 0,0
16.10.2019 05:00:00 -0,4 -0,5 5 3 9 5 SE 1013,7 - 0,0
16.10.2019 04:00:00 -0,9 -1,0 3 2 8 4 SE 1014,3 - 0,0
16.10.2019 03:00:00 -1,5 -1,6 2 1 6 4 WSW 1014,9 - 0,0
16.10.2019 02:00:00 -1,7 -1,8 4 2 7 4 SE 1015,2 - 0,0
16.10.2019 01:00:00 -2,2 -2,5 2 1 8 5 SE 1015,8 - 0,0
16.10.2019 00:00:00 -2,6 -2,9 4 2 8 4 SE 1016,2 - 0,0
15.10.2019 23:00:00 -3,0 -3,5 4 2 7 4 SE 1016,5 - 0,0
15.10.2019 22:00:00 -4,0 -4,8 0 0 9 5 N 1016,6 0,1 0,0
15.10.2019 21:00:00 -3,3 -4,0 2 1 8 4 ESE 1016,5 0,1 0,0
15.10.2019 20:00:00 -1,7 -2,8 6 3 10 5 SE 1016,2 0,1 0,0
15.10.2019 19:00:00 -1,4 -2,8 4 2 7 4 NNE 1015,9 0,1 0,0
15.10.2019 18:00:00 1,1 -1,6 3 2 10 5 E 1015,7 0,1 0,0
15.10.2019 17:00:00 2,3 -1,1 5 3 25 14 E 1015,5 0,1 0,0
15.10.2019 16:00:00 3,2 -0,6 12 6 29 16 SSE 1015,3 0,1 0,0
15.10.2019 15:00:00 4,4 -0,8 11 6 23 13 S 1015,4 0,1 0,0
15.10.2019 14:00:00 4,8 -1,0 12 6 19 10 SSE 1015,3 0,1 0,0
15.10.2019 13:00:00 3,8 -2,4 9 5 15 8 ESE 1016,1 0,1 0,0
15.10.2019 12:00:00 3,1 -2,2 8 5 19 10 ESE 1016,6 0,1 0,0
15.10.2019 11:00:00 2,7 -1,8 6 3 17 9 E 1016,9 0,1 0,0
15.10.2019 10:00:00 1,0 -1,9 5 3 17 9 E 1017,4 0,1 0,0
15.10.2019 09:00:00 -1,5 -3,4 5 3 16 9 SSW 1017,4 0,1 0,0
15.10.2019 08:00:00 -1,5 -3,7 7 4 19 10 ESE 1017,2 0,1 0,0
15.10.2019 07:00:00 0,0 -2,9 8 5 20 11 SSE 1016,5 0,1 0,0
15.10.2019 06:00:00 -1,1 -2,8 5 3 13 7 NNW 1016,8 0,1 0,0
15.10.2019 05:00:00 -2,5 -4,2 2 1 20 11 N 1017,2 0,1 0,0
15.10.2019 04:00:00 -0,1 -3,0 9 5 21 11 SW 1016,9 0,1 0,0
15.10.2019 03:00:00 -3,7 -5,1 3 1 10 5 NNW 1017,2 0,1 0,0
15.10.2019 02:00:00 -3,0 -5,2 2 1 19 11 WNW 1017,0 0,1 0,0
15.10.2019 01:00:00 -2,7 -3,5 4 2 13 7 WSW 1016,7 0,1 0,0
15.10.2019 00:00:00 -4,8 -6,3 3 1 8 4 NNW 1016,8 0,1 0,0
14.10.2019 23:00:00 -4,7 -5,7 3 2 7 4 NW 1016,4 0,1 0,0
14.10.2019 22:00:00 -4,9 -6,3 0 0 8 5 N 1016,2 0,1 0,0
14.10.2019 21:00:00 -2,6 -4,9 3 2 6 3 SSE 1015,5 0,1 0,0
14.10.2019 20:00:00 -1,9 -3,9 3 2 12 6 NNW 1014,9 0,1 0,0
14.10.2019 19:00:00 0,0 -3,0 6 3 16 8 WSW 1014,0 0,1 0,0
14.10.2019 18:00:00 -1,0 -3,0 4 2 11 6 SW 1013,4 0,1 0,0
14.10.2019 17:00:00 3,1 -2,0 5 3 20 11 WSW 1012,0 0,1 0,0
14.10.2019 16:00:00 4,1 -1,3 9 5 20 11 SW 1011,1 0,1 0,0
14.10.2019 15:00:00 1,9 -0,5 6 4 17 9 SSE 1011,2 0,1 0,0
14.10.2019 14:00:00 0,5 -0,9 2 1 8 4 NE 1011,2 0,1 0,0
14.10.2019 13:00:00 -0,5 -1,8 4 2 8 4 ESE 1010,9 0,1 0,0
14.10.2019 12:00:00 -2,0 -2,7 0 0 5 3 N 1010,9 50 0,0
14.10.2019 11:00:00 -3,7 -4,2 2 1 5 3 ESE 1010,7 34 0,0
14.10.2019 10:00:00 -5,9 -6,7 2 1 4 2 NNW 1010,4 35 0,0
14.10.2019 09:00:00 -8,5 -9,4 0 0 - - N 1010,7 50 0,0
14.10.2019 08:00:00 -10,1 -11,7 3 2 5 3 ESE 1010,4 21 0,0
14.10.2019 07:00:00 -9,6 -10,7 2 1 4 2 WNW 1010,1 50 0,0
14.10.2019 06:00:00 -9,2 -10,5 0 0 5 3 N 1010,0 50 0,0
14.10.2019 05:00:00 -9,3 -10,6 2 1 5 3 W 1010,1 50 0,0
14.10.2019 04:00:00 -8,6 -9,8 0 0 5 3 N 1010,1 50 0,0

tt = temperature
td = dewpoint
ff = wind speed
fx = gusts
dd = wind direction
ppp = reduced air pressure
vv = visibility
rr = precipitation

Next stations